Location: Gellin
(53.4498°N, 14.3207°E)
Time: 23:56:30
(UTC+00:00)

USA 234 - Pass Details

Date: 03 March 2021
Orbit: 1102 x 1105 km, 123.0° (Epoch: 08 April)

Event Time Altitude Azimuth Distance (km) Brightness Sun altitude
Exits shadow 21:27:17 36° 273° (W) 1,690 4.4 -38.2°
Drops below altitude 10° 21:30:52 10° 266° (W) 2,963 5.8 -38.5°
Sets 21:33:21 0° 264° (W) 3,921 6.5 -38.7°
